<?xml version="1.0" encoding="UTF-8"?>
<gpx
version="1.1"
creator="Kashmir3D 9.350 - http://www.kashmir3d.com"
xmlns:xsi="http://www.w3.org/2001/XMLSchema-instance"
xmlns="http://www.topografix.com/GPX/1/1"
xmlns:kashmir3d="http://www.kashmir3d.com/namespace/kashmir3d"
xsi:schemaLocation="http://www.topografix.com/GPX/1/1 http://www.topografix.com/GPX/1/1/gpx.xsd
	http://www.kashmir3d.com/namespace/kashmir3d http://www.kashmir3d.com/namespace/kashmir3d.xsd">
<trk>
 <name>NYUDOUGATAKE.KML(入道ヶ岳)</name>
 <number>1</number>
 <extensions>
 <kashmir3d:line_color>0000ff</kashmir3d:line_color>
 <kashmir3d:line_size>3</kashmir3d:line_size>
 <kashmir3d:line_style>1</kashmir3d:line_style>
 <kashmir3d:icon>901001</kashmir3d:icon>
 </extensions>
<trkseg>
<trkpt lat="34.958600" lon="136.455329">
 <ele>179.9</ele>
 <time>2020-03-24T14:27:51Z</time>
</trkpt>
<trkpt lat="34.958634" lon="136.455383">
 <ele>179.5</ele>
 <time>2020-03-24T14:27:51Z</time>
</trkpt>
<trkpt lat="34.959270" lon="136.454814">
 <ele>184</ele>
 <time>2020-03-24T14:27:51Z</time>
</trkpt>
<trkpt lat="34.959828" lon="136.454364">
 <ele>189.1</ele>
 <time>2020-03-24T14:27:51Z</time>
</trkpt>
<trkpt lat="34.960042" lon="136.454214">
 <ele>190.8</ele>
 <time>2020-03-24T14:27:51Z</time>
</trkpt>
<trkpt lat="34.960703" lon="136.453945">
 <ele>193.9</ele>
 <time>2020-03-24T14:27:51Z</time>
</trkpt>
<trkpt lat="34.961312" lon="136.453677">
 <ele>198.1</ele>
 <time>2020-03-24T14:27:52Z</time>
</trkpt>
<trkpt lat="34.961802" lon="136.453484">
 <ele>201.2</ele>
 <time>2020-03-24T14:27:52Z</time>
</trkpt>
<trkpt lat="34.962188" lon="136.453312">
 <ele>202.7</ele>
 <time>2020-03-24T14:27:52Z</time>
</trkpt>
<trkpt lat="34.962583" lon="136.453173">
 <ele>204.2</ele>
 <time>2020-03-24T14:27:52Z</time>
</trkpt>
<trkpt lat="34.962703" lon="136.453087">
 <ele>204.9</ele>
 <time>2020-03-24T14:27:52Z</time>
</trkpt>
<trkpt lat="34.962746" lon="136.452958">
 <ele>205.5</ele>
 <time>2020-03-24T14:27:52Z</time>
</trkpt>
<trkpt lat="34.962789" lon="136.452840">
 <ele>206.2</ele>
 <time>2020-03-24T14:27:52Z</time>
</trkpt>
<trkpt lat="34.962875" lon="136.452776">
 <ele>206.7</ele>
 <time>2020-03-24T14:27:52Z</time>
</trkpt>
<trkpt lat="34.962935" lon="136.452744">
 <ele>207</ele>
 <time>2020-03-24T14:27:52Z</time>
</trkpt>
<trkpt lat="34.962978" lon="136.452636">
 <ele>207.7</ele>
 <time>2020-03-24T14:27:52Z</time>
</trkpt>
<trkpt lat="34.963029" lon="136.452475">
 <ele>208.8</ele>
 <time>2020-03-24T14:27:53Z</time>
</trkpt>
<trkpt lat="34.963098" lon="136.452400">
 <ele>209.7</ele>
 <time>2020-03-24T14:27:53Z</time>
</trkpt>
<trkpt lat="34.963226" lon="136.452325">
 <ele>211</ele>
 <time>2020-03-24T14:27:53Z</time>
</trkpt>
<trkpt lat="34.963372" lon="136.452229">
 <ele>212.9</ele>
 <time>2020-03-24T14:27:53Z</time>
</trkpt>
<trkpt lat="34.963467" lon="136.452111">
 <ele>214.3</ele>
 <time>2020-03-24T14:27:53Z</time>
</trkpt>
<trkpt lat="34.963561" lon="136.451939">
 <ele>216.4</ele>
 <time>2020-03-24T14:27:53Z</time>
</trkpt>
<trkpt lat="34.963647" lon="136.451832">
 <ele>217.4</ele>
 <time>2020-03-24T14:27:53Z</time>
</trkpt>
<trkpt lat="34.963793" lon="136.451660">
 <ele>219</ele>
 <time>2020-03-24T14:27:53Z</time>
</trkpt>
<trkpt lat="34.963879" lon="136.451553">
 <ele>220.2</ele>
 <time>2020-03-24T14:27:53Z</time>
</trkpt>
<trkpt lat="34.963982" lon="136.451467">
 <ele>221.2</ele>
 <time>2020-03-24T14:27:53Z</time>
</trkpt>
<trkpt lat="34.964085" lon="136.451338">
 <ele>222.1</ele>
 <time>2020-03-24T14:27:54Z</time>
</trkpt>
<trkpt lat="34.964171" lon="136.451263">
 <ele>223.1</ele>
 <time>2020-03-24T14:27:54Z</time>
</trkpt>
<trkpt lat="34.964222" lon="136.451188">
 <ele>223.9</ele>
 <time>2020-03-24T14:27:54Z</time>
</trkpt>
<trkpt lat="34.964248" lon="136.451038">
 <ele>224.7</ele>
 <time>2020-03-24T14:27:54Z</time>
</trkpt>
<trkpt lat="34.964274" lon="136.450984">
 <ele>225</ele>
 <time>2020-03-24T14:27:54Z</time>
</trkpt>
<trkpt lat="34.964342" lon="136.450909">
 <ele>226</ele>
 <time>2020-03-24T14:27:54Z</time>
</trkpt>
<trkpt lat="34.964497" lon="136.450823">
 <ele>226.9</ele>
 <time>2020-03-24T14:27:54Z</time>
</trkpt>
<trkpt lat="34.964583" lon="136.450759">
 <ele>227.4</ele>
 <time>2020-03-24T14:27:54Z</time>
</trkpt>
<trkpt lat="34.964737" lon="136.450630">
 <ele>228.7</ele>
 <time>2020-03-24T14:27:54Z</time>
</trkpt>
<trkpt lat="34.964849" lon="136.450534">
 <ele>231.1</ele>
 <time>2020-03-24T14:27:54Z</time>
</trkpt>
<trkpt lat="34.964969" lon="136.450448">
 <ele>232.2</ele>
 <time>2020-03-24T14:27:55Z</time>
</trkpt>
<trkpt lat="34.965080" lon="136.450383">
 <ele>233.9</ele>
 <time>2020-03-24T14:27:55Z</time>
</trkpt>
<trkpt lat="34.965166" lon="136.450351">
 <ele>235.1</ele>
 <time>2020-03-24T14:27:55Z</time>
</trkpt>
<trkpt lat="34.965243" lon="136.450330">
 <ele>236.7</ele>
 <time>2020-03-24T14:27:55Z</time>
</trkpt>
<trkpt lat="34.965312" lon="136.450287">
 <ele>237.9</ele>
 <time>2020-03-24T14:27:55Z</time>
</trkpt>
<trkpt lat="34.965364" lon="136.450147">
 <ele>239.5</ele>
 <time>2020-03-24T14:27:55Z</time>
</trkpt>
<trkpt lat="34.965407" lon="136.449997">
 <ele>240</ele>
 <time>2020-03-24T14:27:55Z</time>
</trkpt>
<trkpt lat="34.965501" lon="136.449868">
 <ele>242.6</ele>
 <time>2020-03-24T14:27:55Z</time>
</trkpt>
<trkpt lat="34.965638" lon="136.449750">
 <ele>247.2</ele>
 <time>2020-03-24T14:27:56Z</time>
</trkpt>
<trkpt lat="34.965776" lon="136.449643">
 <ele>249</ele>
 <time>2020-03-24T14:27:56Z</time>
</trkpt>
<trkpt lat="34.965861" lon="136.449557">
 <ele>248.9</ele>
 <time>2020-03-24T14:27:56Z</time>
</trkpt>
<trkpt lat="34.965930" lon="136.449418">
 <ele>250.8</ele>
 <time>2020-03-24T14:27:56Z</time>
</trkpt>
<trkpt lat="34.965990" lon="136.449149">
 <ele>256.9</ele>
 <time>2020-03-24T14:27:56Z</time>
</trkpt>
<trkpt lat="34.966033" lon="136.448935">
 <ele>259.1</ele>
 <time>2020-03-24T14:27:56Z</time>
</trkpt>
<trkpt lat="34.966085" lon="136.448710">
 <ele>261.5</ele>
 <time>2020-03-24T14:27:56Z</time>
</trkpt>
<trkpt lat="34.966153" lon="136.448549">
 <ele>262.5</ele>
 <time>2020-03-24T14:27:56Z</time>
</trkpt>
<trkpt lat="34.966213" lon="136.448409">
 <ele>265.7</ele>
 <time>2020-03-24T14:27:56Z</time>
</trkpt>
<trkpt lat="34.966299" lon="136.448238">
 <ele>272.4</ele>
 <time>2020-03-24T14:27:56Z</time>
</trkpt>
<trkpt lat="34.966368" lon="136.448109">
 <ele>272.3</ele>
 <time>2020-03-24T14:27:57Z</time>
</trkpt>
<trkpt lat="34.966539" lon="136.447905">
 <ele>272.8</ele>
 <time>2020-03-24T14:27:57Z</time>
</trkpt>
<trkpt lat="34.966617" lon="136.447841">
 <ele>278.3</ele>
 <time>2020-03-24T14:27:57Z</time>
</trkpt>
<trkpt lat="34.966685" lon="136.447744">
 <ele>272.1</ele>
 <time>2020-03-24T14:27:57Z</time>
</trkpt>
<trkpt lat="34.966737" lon="136.447658">
 <ele>271</ele>
 <time>2020-03-24T14:27:57Z</time>
</trkpt>
<trkpt lat="34.966831" lon="136.447529">
 <ele>273</ele>
 <time>2020-03-24T14:27:57Z</time>
</trkpt>
<trkpt lat="34.966986" lon="136.447454">
 <ele>276.1</ele>
 <time>2020-03-24T14:27:57Z</time>
</trkpt>
<trkpt lat="34.967149" lon="136.447347">
 <ele>274.4</ele>
 <time>2020-03-24T14:27:57Z</time>
</trkpt>
<trkpt lat="34.967295" lon="136.447208">
 <ele>274.7</ele>
 <time>2020-03-24T14:27:57Z</time>
</trkpt>
<trkpt lat="34.967329" lon="136.447068">
 <ele>275.6</ele>
 <time>2020-03-24T14:27:57Z</time>
</trkpt>
<trkpt lat="34.967303" lon="136.446821">
 <ele>275.7</ele>
 <time>2020-03-24T14:27:58Z</time>
</trkpt>
<trkpt lat="34.967235" lon="136.446446">
 <ele>277.2</ele>
 <time>2020-03-24T14:27:58Z</time>
</trkpt>
<trkpt lat="34.967226" lon="136.446263">
 <ele>282.1</ele>
 <time>2020-03-24T14:27:58Z</time>
</trkpt>
<trkpt lat="34.967295" lon="136.446070">
 <ele>289.5</ele>
 <time>2020-03-24T14:27:58Z</time>
</trkpt>
<trkpt lat="34.967458" lon="136.445727">
 <ele>299.2</ele>
 <time>2020-03-24T14:27:58Z</time>
</trkpt>
<trkpt lat="34.967604" lon="136.445362">
 <ele>304.8</ele>
 <time>2020-03-24T14:27:58Z</time>
</trkpt>
<trkpt lat="34.967638" lon="136.445148">
 <ele>304.8</ele>
 <time>2020-03-24T14:27:58Z</time>
</trkpt>
<trkpt lat="34.967681" lon="136.444976">
 <ele>304.9</ele>
 <time>2020-03-24T14:27:58Z</time>
</trkpt>
<trkpt lat="34.967664" lon="136.444761">
 <ele>307</ele>
 <time>2020-03-24T14:27:58Z</time>
</trkpt>
<trkpt lat="34.967621" lon="136.444611">
 <ele>307.9</ele>
 <time>2020-03-24T14:27:59Z</time>
</trkpt>
<trkpt lat="34.967544" lon="136.444407">
 <ele>309.4</ele>
 <time>2020-03-24T14:27:59Z</time>
</trkpt>
<trkpt lat="34.967475" lon="136.444354">
 <ele>308.9</ele>
 <time>2020-03-24T14:27:59Z</time>
</trkpt>
<trkpt lat="34.967424" lon="136.444268">
 <ele>309</ele>
 <time>2020-03-24T14:27:59Z</time>
</trkpt>
<trkpt lat="34.967321" lon="136.444268">
 <ele>311.3</ele>
 <time>2020-03-24T14:27:59Z</time>
</trkpt>
<trkpt lat="34.967286" lon="136.444343">
 <ele>312.3</ele>
 <time>2020-03-24T14:27:59Z</time>
</trkpt>
<trkpt lat="34.967235" lon="136.444397">
 <ele>315.4</ele>
 <time>2020-03-24T14:27:59Z</time>
</trkpt>
<trkpt lat="34.967157" lon="136.444407">
 <ele>317.4</ele>
 <time>2020-03-24T14:27:59Z</time>
</trkpt>
<trkpt lat="34.967020" lon="136.444203">
 <ele>323.5</ele>
 <time>2020-03-24T14:27:59Z</time>
</trkpt>
<trkpt lat="34.966900" lon="136.444064">
 <ele>324.9</ele>
 <time>2020-03-24T14:28:00Z</time>
</trkpt>
<trkpt lat="34.966806" lon="136.443839">
 <ele>330.7</ele>
 <time>2020-03-24T14:28:00Z</time>
</trkpt>
<trkpt lat="34.966685" lon="136.443570">
 <ele>338.2</ele>
 <time>2020-03-24T14:28:00Z</time>
</trkpt>
<trkpt lat="34.966608" lon="136.443377">
 <ele>345.8</ele>
 <time>2020-03-24T14:28:00Z</time>
</trkpt>
<trkpt lat="34.966582" lon="136.443249">
 <ele>350.7</ele>
 <time>2020-03-24T14:28:00Z</time>
</trkpt>
<trkpt lat="34.966522" lon="136.443013">
 <ele>353.7</ele>
 <time>2020-03-24T14:28:00Z</time>
</trkpt>
<trkpt lat="34.966497" lon="136.442852">
 <ele>353.2</ele>
 <time>2020-03-24T14:28:00Z</time>
</trkpt>
<trkpt lat="34.966479" lon="136.442723">
 <ele>354.1</ele>
 <time>2020-03-24T14:28:00Z</time>
</trkpt>
<trkpt lat="34.966445" lon="136.442605">
 <ele>353.5</ele>
 <time>2020-03-24T14:28:00Z</time>
</trkpt>
<trkpt lat="34.966445" lon="136.442476">
 <ele>356.1</ele>
 <time>2020-03-24T14:28:00Z</time>
</trkpt>
<trkpt lat="34.966445" lon="136.442294">
 <ele>360.2</ele>
 <time>2020-03-24T14:28:01Z</time>
</trkpt>
<trkpt lat="34.966462" lon="136.442197">
 <ele>362.2</ele>
 <time>2020-03-24T14:28:01Z</time>
</trkpt>
<trkpt lat="34.966471" lon="136.442101">
 <ele>364.5</ele>
 <time>2020-03-24T14:28:01Z</time>
</trkpt>
<trkpt lat="34.966497" lon="136.441983">
 <ele>368.5</ele>
 <time>2020-03-24T14:28:01Z</time>
</trkpt>
<trkpt lat="34.966505" lon="136.441843">
 <ele>370.9</ele>
 <time>2020-03-24T14:28:01Z</time>
</trkpt>
<trkpt lat="34.966522" lon="136.441736">
 <ele>374.5</ele>
 <time>2020-03-24T14:28:01Z</time>
</trkpt>
<trkpt lat="34.966591" lon="136.441596">
 <ele>380.7</ele>
 <time>2020-03-24T14:28:01Z</time>
</trkpt>
<trkpt lat="34.966634" lon="136.441500">
 <ele>383.3</ele>
 <time>2020-03-24T14:28:01Z</time>
</trkpt>
<trkpt lat="34.966711" lon="136.441328">
 <ele>391</ele>
 <time>2020-03-24T14:28:01Z</time>
</trkpt>
<trkpt lat="34.966771" lon="136.441221">
 <ele>398.1</ele>
 <time>2020-03-24T14:28:01Z</time>
</trkpt>
<trkpt lat="34.966788" lon="136.441157">
 <ele>400.6</ele>
 <time>2020-03-24T14:28:02Z</time>
</trkpt>
<trkpt lat="34.966745" lon="136.441071">
 <ele>408.1</ele>
 <time>2020-03-24T14:28:02Z</time>
</trkpt>
<trkpt lat="34.966685" lon="136.441028">
 <ele>409.6</ele>
 <time>2020-03-24T14:28:02Z</time>
</trkpt>
<trkpt lat="34.966634" lon="136.440963">
 <ele>412.6</ele>
 <time>2020-03-24T14:28:02Z</time>
</trkpt>
<trkpt lat="34.966625" lon="136.440878">
 <ele>415.5</ele>
 <time>2020-03-24T14:28:02Z</time>
</trkpt>
<trkpt lat="34.966634" lon="136.440760">
 <ele>418.5</ele>
 <time>2020-03-24T14:28:02Z</time>
</trkpt>
<trkpt lat="34.966668" lon="136.440652">
 <ele>423.9</ele>
 <time>2020-03-24T14:28:02Z</time>
</trkpt>
<trkpt lat="34.966711" lon="136.440524">
 <ele>428.9</ele>
 <time>2020-03-24T14:28:02Z</time>
</trkpt>
<trkpt lat="34.966763" lon="136.440384">
 <ele>434.9</ele>
 <time>2020-03-24T14:28:02Z</time>
</trkpt>
<trkpt lat="34.966857" lon="136.440320">
 <ele>440.6</ele>
 <time>2020-03-24T14:28:03Z</time>
</trkpt>
<trkpt lat="34.966891" lon="136.440202">
 <ele>445</ele>
 <time>2020-03-24T14:28:03Z</time>
</trkpt>
<trkpt lat="34.966951" lon="136.440073">
 <ele>452.9</ele>
 <time>2020-03-24T14:28:03Z</time>
</trkpt>
<trkpt lat="34.967020" lon="136.439998">
 <ele>459.3</ele>
 <time>2020-03-24T14:28:03Z</time>
</trkpt>
<trkpt lat="34.967132" lon="136.439891">
 <ele>468.6</ele>
 <time>2020-03-24T14:28:03Z</time>
</trkpt>
<trkpt lat="34.967226" lon="136.439837">
 <ele>478.2</ele>
 <time>2020-03-24T14:28:03Z</time>
</trkpt>
<trkpt lat="34.967303" lon="136.439772">
 <ele>484.1</ele>
 <time>2020-03-24T14:28:03Z</time>
</trkpt>
<trkpt lat="34.967338" lon="136.439687">
 <ele>488</ele>
 <time>2020-03-24T14:28:03Z</time>
</trkpt>
<trkpt lat="34.967346" lon="136.439590">
 <ele>489.6</ele>
 <time>2020-03-24T14:28:03Z</time>
</trkpt>
<trkpt lat="34.967363" lon="136.439472">
 <ele>493</ele>
 <time>2020-03-24T14:28:03Z</time>
</trkpt>
<trkpt lat="34.967415" lon="136.439386">
 <ele>496.4</ele>
 <time>2020-03-24T14:28:04Z</time>
</trkpt>
<trkpt lat="34.967484" lon="136.439268">
 <ele>502.7</ele>
 <time>2020-03-24T14:28:04Z</time>
</trkpt>
<trkpt lat="34.967552" lon="136.439161">
 <ele>509.6</ele>
 <time>2020-03-24T14:28:04Z</time>
</trkpt>
<trkpt lat="34.967587" lon="136.439054">
 <ele>514.3</ele>
 <time>2020-03-24T14:28:04Z</time>
</trkpt>
<trkpt lat="34.967638" lon="136.438968">
 <ele>519</ele>
 <time>2020-03-24T14:28:04Z</time>
</trkpt>
<trkpt lat="34.967690" lon="136.438882">
 <ele>524.1</ele>
 <time>2020-03-24T14:28:04Z</time>
</trkpt>
<trkpt lat="34.967698" lon="136.438753">
 <ele>530.6</ele>
 <time>2020-03-24T14:28:04Z</time>
</trkpt>
<trkpt lat="34.967672" lon="136.438635">
 <ele>534</ele>
 <time>2020-03-24T14:28:04Z</time>
</trkpt>
<trkpt lat="34.967595" lon="136.438517">
 <ele>539.8</ele>
 <time>2020-03-24T14:28:04Z</time>
</trkpt>
<trkpt lat="34.967492" lon="136.438464">
 <ele>542.2</ele>
 <time>2020-03-24T14:28:05Z</time>
</trkpt>
<trkpt lat="34.967398" lon="136.438399">
 <ele>543.2</ele>
 <time>2020-03-24T14:28:05Z</time>
</trkpt>
<trkpt lat="34.967303" lon="136.438367">
 <ele>545</ele>
 <time>2020-03-24T14:28:05Z</time>
</trkpt>
<trkpt lat="34.967243" lon="136.438356">
 <ele>546.3</ele>
 <time>2020-03-24T14:28:05Z</time>
</trkpt>
<trkpt lat="34.967166" lon="136.438281">
 <ele>548.8</ele>
 <time>2020-03-24T14:28:05Z</time>
</trkpt>
<trkpt lat="34.967089" lon="136.438152">
 <ele>552.4</ele>
 <time>2020-03-24T14:28:05Z</time>
</trkpt>
<trkpt lat="34.966969" lon="136.438142">
 <ele>555.4</ele>
 <time>2020-03-24T14:28:05Z</time>
</trkpt>
<trkpt lat="34.966891" lon="136.438120">
 <ele>562</ele>
 <time>2020-03-24T14:28:05Z</time>
</trkpt>
<trkpt lat="34.966823" lon="136.438110">
 <ele>564.6</ele>
 <time>2020-03-24T14:28:05Z</time>
</trkpt>
<trkpt lat="34.966668" lon="136.438045">
 <ele>565.6</ele>
 <time>2020-03-24T14:28:05Z</time>
</trkpt>
<trkpt lat="34.966600" lon="136.437970">
 <ele>567.9</ele>
 <time>2020-03-24T14:28:06Z</time>
</trkpt>
<trkpt lat="34.966522" lon="136.437927">
 <ele>570.6</ele>
 <time>2020-03-24T14:28:06Z</time>
</trkpt>
<trkpt lat="34.966454" lon="136.437906">
 <ele>574.4</ele>
 <time>2020-03-24T14:28:06Z</time>
</trkpt>
<trkpt lat="34.966385" lon="136.437895">
 <ele>576</ele>
 <time>2020-03-24T14:28:06Z</time>
</trkpt>
<trkpt lat="34.966325" lon="136.437863">
 <ele>579.3</ele>
 <time>2020-03-24T14:28:06Z</time>
</trkpt>
<trkpt lat="34.966325" lon="136.437777">
 <ele>582.8</ele>
 <time>2020-03-24T14:28:06Z</time>
</trkpt>
<trkpt lat="34.966325" lon="136.437680">
 <ele>585.1</ele>
 <time>2020-03-24T14:28:06Z</time>
</trkpt>
<trkpt lat="34.966342" lon="136.437595">
 <ele>589</ele>
 <time>2020-03-24T14:28:06Z</time>
</trkpt>
<trkpt lat="34.966342" lon="136.437498">
 <ele>591.2</ele>
 <time>2020-03-24T14:28:07Z</time>
</trkpt>
<trkpt lat="34.966471" lon="136.437369">
 <ele>596.2</ele>
 <time>2020-03-24T14:28:07Z</time>
</trkpt>
<trkpt lat="34.966557" lon="136.437316">
 <ele>600.4</ele>
 <time>2020-03-24T14:28:07Z</time>
</trkpt>
<trkpt lat="34.966677" lon="136.437240">
 <ele>603.8</ele>
 <time>2020-03-24T14:28:07Z</time>
</trkpt>
<trkpt lat="34.966745" lon="136.437187">
 <ele>606.6</ele>
 <time>2020-03-24T14:28:07Z</time>
</trkpt>
<trkpt lat="34.966797" lon="136.437122">
 <ele>609.8</ele>
 <time>2020-03-24T14:28:07Z</time>
</trkpt>
<trkpt lat="34.966866" lon="136.437058">
 <ele>612.2</ele>
 <time>2020-03-24T14:28:07Z</time>
</trkpt>
<trkpt lat="34.966926" lon="136.436994">
 <ele>613.4</ele>
 <time>2020-03-24T14:28:08Z</time>
</trkpt>
<trkpt lat="34.966986" lon="136.436908">
 <ele>615.9</ele>
 <time>2020-03-24T14:28:08Z</time>
</trkpt>
<trkpt lat="34.967089" lon="136.436833">
 <ele>620.1</ele>
 <time>2020-03-24T14:28:08Z</time>
</trkpt>
<trkpt lat="34.967218" lon="136.436811">
 <ele>626.6</ele>
 <time>2020-03-24T14:28:08Z</time>
</trkpt>
<trkpt lat="34.967329" lon="136.436779">
 <ele>631.1</ele>
 <time>2020-03-24T14:28:08Z</time>
</trkpt>
<trkpt lat="34.967415" lon="136.436779">
 <ele>634.2</ele>
 <time>2020-03-24T14:28:08Z</time>
</trkpt>
<trkpt lat="34.967527" lon="136.436747">
 <ele>640.8</ele>
 <time>2020-03-24T14:28:08Z</time>
</trkpt>
<trkpt lat="34.967630" lon="136.436736">
 <ele>644</ele>
 <time>2020-03-24T14:28:09Z</time>
</trkpt>
<trkpt lat="34.967733" lon="136.436726">
 <ele>648.9</ele>
 <time>2020-03-24T14:28:09Z</time>
</trkpt>
<trkpt lat="34.967818" lon="136.436726">
 <ele>652</ele>
 <time>2020-03-24T14:28:09Z</time>
</trkpt>
<trkpt lat="34.967921" lon="136.436726">
 <ele>654.1</ele>
 <time>2020-03-24T14:28:09Z</time>
</trkpt>
<trkpt lat="34.968007" lon="136.436715">
 <ele>656.5</ele>
 <time>2020-03-24T14:28:09Z</time>
</trkpt>
<trkpt lat="34.968059" lon="136.436693">
 <ele>658.5</ele>
 <time>2020-03-24T14:28:09Z</time>
</trkpt>
<trkpt lat="34.968102" lon="136.436661">
 <ele>659.1</ele>
 <time>2020-03-24T14:28:09Z</time>
</trkpt>
<trkpt lat="34.968196" lon="136.436661">
 <ele>661.7</ele>
 <time>2020-03-24T14:28:09Z</time>
</trkpt>
<trkpt lat="34.968290" lon="136.436661">
 <ele>663.4</ele>
 <time>2020-03-24T14:28:10Z</time>
</trkpt>
<trkpt lat="34.968411" lon="136.436661">
 <ele>667.1</ele>
 <time>2020-03-24T14:28:10Z</time>
</trkpt>
<trkpt lat="34.968574" lon="136.436650">
 <ele>670.9</ele>
 <time>2020-03-24T14:28:10Z</time>
</trkpt>
<trkpt lat="34.968745" lon="136.436650">
 <ele>674.6</ele>
 <time>2020-03-24T14:28:10Z</time>
</trkpt>
<trkpt lat="34.968865" lon="136.436650">
 <ele>677</ele>
 <time>2020-03-24T14:28:10Z</time>
</trkpt>
<trkpt lat="34.968951" lon="136.436672">
 <ele>678.3</ele>
 <time>2020-03-24T14:28:10Z</time>
</trkpt>
<trkpt lat="34.969046" lon="136.436683">
 <ele>680.9</ele>
 <time>2020-03-24T14:28:10Z</time>
</trkpt>
<trkpt lat="34.969166" lon="136.436683">
 <ele>684.4</ele>
 <time>2020-03-24T14:28:11Z</time>
</trkpt>
<trkpt lat="34.969243" lon="136.436683">
 <ele>687.3</ele>
 <time>2020-03-24T14:28:11Z</time>
</trkpt>
<trkpt lat="34.969329" lon="136.436693">
 <ele>691.2</ele>
 <time>2020-03-24T14:28:11Z</time>
</trkpt>
<trkpt lat="34.969423" lon="136.436672">
 <ele>693.2</ele>
 <time>2020-03-24T14:28:11Z</time>
</trkpt>
<trkpt lat="34.969544" lon="136.436607">
 <ele>698.4</ele>
 <time>2020-03-24T14:28:11Z</time>
</trkpt>
<trkpt lat="34.969638" lon="136.436586">
 <ele>702</ele>
 <time>2020-03-24T14:28:11Z</time>
</trkpt>
<trkpt lat="34.969689" lon="136.436586">
 <ele>703.2</ele>
 <time>2020-03-24T14:28:11Z</time>
</trkpt>
<trkpt lat="34.969750" lon="136.436575">
 <ele>705.5</ele>
 <time>2020-03-24T14:28:11Z</time>
</trkpt>
<trkpt lat="34.969921" lon="136.436522">
 <ele>711.3</ele>
 <time>2020-03-24T14:28:12Z</time>
</trkpt>
<trkpt lat="34.969998" lon="136.436468">
 <ele>713.5</ele>
 <time>2020-03-24T14:28:12Z</time>
</trkpt>
<trkpt lat="34.970076" lon="136.436404">
 <ele>717</ele>
 <time>2020-03-24T14:28:12Z</time>
</trkpt>
<trkpt lat="34.970144" lon="136.436361">
 <ele>720.3</ele>
 <time>2020-03-24T14:28:12Z</time>
</trkpt>
<trkpt lat="34.970282" lon="136.436275">
 <ele>727.5</ele>
 <time>2020-03-24T14:28:12Z</time>
</trkpt>
<trkpt lat="34.970402" lon="136.436200">
 <ele>736.5</ele>
 <time>2020-03-24T14:28:12Z</time>
</trkpt>
<trkpt lat="34.970488" lon="136.436114">
 <ele>746</ele>
 <time>2020-03-24T14:28:12Z</time>
</trkpt>
<trkpt lat="34.970582" lon="136.436082">
 <ele>751.2</ele>
 <time>2020-03-24T14:28:13Z</time>
</trkpt>
<trkpt lat="34.970677" lon="136.436039">
 <ele>758.5</ele>
 <time>2020-03-24T14:28:13Z</time>
</trkpt>
<trkpt lat="34.970797" lon="136.435974">
 <ele>766.7</ele>
 <time>2020-03-24T14:28:13Z</time>
</trkpt>
<trkpt lat="34.970917" lon="136.435910">
 <ele>774.6</ele>
 <time>2020-03-24T14:28:13Z</time>
</trkpt>
<trkpt lat="34.971011" lon="136.435867">
 <ele>780.2</ele>
 <time>2020-03-24T14:28:13Z</time>
</trkpt>
<trkpt lat="34.971106" lon="136.435856">
 <ele>784.1</ele>
 <time>2020-03-24T14:28:13Z</time>
</trkpt>
<trkpt lat="34.971200" lon="136.435846">
 <ele>789.7</ele>
 <time>2020-03-24T14:28:13Z</time>
</trkpt>
<trkpt lat="34.971286" lon="136.435824">
 <ele>793.8</ele>
 <time>2020-03-24T14:28:13Z</time>
</trkpt>
<trkpt lat="34.971423" lon="136.435824">
 <ele>801.6</ele>
 <time>2020-03-24T14:28:14Z</time>
</trkpt>
<trkpt lat="34.971526" lon="136.435824">
 <ele>805.8</ele>
 <time>2020-03-24T14:28:14Z</time>
</trkpt>
<trkpt lat="34.971664" lon="136.435824">
 <ele>812.7</ele>
 <time>2020-03-24T14:28:14Z</time>
</trkpt>
<trkpt lat="34.971758" lon="136.435781">
 <ele>819.6</ele>
 <time>2020-03-24T14:28:14Z</time>
</trkpt>
<trkpt lat="34.971818" lon="136.435760">
 <ele>824.3</ele>
 <time>2020-03-24T14:28:14Z</time>
</trkpt>
<trkpt lat="34.971930" lon="136.435653">
 <ele>827</ele>
 <time>2020-03-24T14:28:14Z</time>
</trkpt>
<trkpt lat="34.972093" lon="136.435545">
 <ele>830.2</ele>
 <time>2020-03-24T14:28:14Z</time>
</trkpt>
<trkpt lat="34.972204" lon="136.435470">
 <ele>834.7</ele>
 <time>2020-03-24T14:28:14Z</time>
</trkpt>
<trkpt lat="34.972350" lon="136.435352">
 <ele>842.8</ele>
 <time>2020-03-24T14:28:15Z</time>
</trkpt>
<trkpt lat="34.972419" lon="136.435299">
 <ele>846.5</ele>
 <time>2020-03-24T14:28:15Z</time>
</trkpt>
<trkpt lat="34.972522" lon="136.435234">
 <ele>851.6</ele>
 <time>2020-03-24T14:28:15Z</time>
</trkpt>
<trkpt lat="34.972668" lon="136.435148">
 <ele>857.9</ele>
 <time>2020-03-24T14:28:15Z</time>
</trkpt>
<trkpt lat="34.972771" lon="136.435073">
 <ele>864.3</ele>
 <time>2020-03-24T14:28:15Z</time>
</trkpt>
<trkpt lat="34.972891" lon="136.435020">
 <ele>869.8</ele>
 <time>2020-03-24T14:28:15Z</time>
</trkpt>
<trkpt lat="34.973003" lon="136.434987">
 <ele>874</ele>
 <time>2020-03-24T14:28:15Z</time>
</trkpt>
<trkpt lat="34.973054" lon="136.434955">
 <ele>874.6</ele>
 <time>2020-03-24T14:28:16Z</time>
</trkpt>
<trkpt lat="34.973054" lon="136.434859">
 <ele>876.3</ele>
 <time>2020-03-24T14:28:16Z</time>
</trkpt>
<trkpt lat="34.973097" lon="136.434784">
 <ele>877</ele>
 <time>2020-03-24T14:28:16Z</time>
</trkpt>
<trkpt lat="34.973157" lon="136.434698">
 <ele>877.1</ele>
 <time>2020-03-24T14:28:16Z</time>
</trkpt>
<trkpt lat="34.973217" lon="136.434601">
 <ele>878.4</ele>
 <time>2020-03-24T14:28:16Z</time>
</trkpt>
<trkpt lat="34.973286" lon="136.434505">
 <ele>880</ele>
 <time>2020-03-24T14:28:16Z</time>
</trkpt>
<trkpt lat="34.973354" lon="136.434419">
 <ele>881.5</ele>
 <time>2020-03-24T14:28:16Z</time>
</trkpt>
<trkpt lat="34.973423" lon="136.434344">
 <ele>882.9</ele>
 <time>2020-03-24T14:28:16Z</time>
</trkpt>
<trkpt lat="34.973535" lon="136.434204">
 <ele>886.5</ele>
 <time>2020-03-24T14:28:17Z</time>
</trkpt>
<trkpt lat="34.973638" lon="136.434097">
 <ele>891.9</ele>
 <time>2020-03-24T14:28:17Z</time>
</trkpt>
<trkpt lat="34.973732" lon="136.433979">
 <ele>897.8</ele>
 <time>2020-03-24T14:28:17Z</time>
</trkpt>
<trkpt lat="34.973872" lon="136.433828">
 <ele>905</ele>
 <time>2020-03-24T14:28:17Z</time>
</trkpt>
<trkpt lat="34.973732" lon="136.433979">
 <ele>897.8</ele>
 <time>2020-03-24T14:28:17Z</time>
</trkpt>
<trkpt lat="34.973638" lon="136.434097">
 <ele>891.9</ele>
 <time>2020-03-24T14:28:17Z</time>
</trkpt>
<trkpt lat="34.973535" lon="136.434204">
 <ele>886.5</ele>
 <time>2020-03-24T14:28:17Z</time>
</trkpt>
<trkpt lat="34.973423" lon="136.434344">
 <ele>882.9</ele>
 <time>2020-03-24T14:28:18Z</time>
</trkpt>
<trkpt lat="34.973354" lon="136.434419">
 <ele>881.5</ele>
 <time>2020-03-24T14:28:18Z</time>
</trkpt>
<trkpt lat="34.973286" lon="136.434505">
 <ele>880</ele>
 <time>2020-03-24T14:28:18Z</time>
</trkpt>
<trkpt lat="34.973217" lon="136.434601">
 <ele>878.4</ele>
 <time>2020-03-24T14:28:18Z</time>
</trkpt>
<trkpt lat="34.973157" lon="136.434698">
 <ele>877.1</ele>
 <time>2020-03-24T14:28:18Z</time>
</trkpt>
<trkpt lat="34.973097" lon="136.434784">
 <ele>877</ele>
 <time>2020-03-24T14:28:18Z</time>
</trkpt>
<trkpt lat="34.973054" lon="136.434859">
 <ele>876.3</ele>
 <time>2020-03-24T14:28:18Z</time>
</trkpt>
<trkpt lat="34.973054" lon="136.434955">
 <ele>874.6</ele>
 <time>2020-03-24T14:28:18Z</time>
</trkpt>
<trkpt lat="34.973003" lon="136.434987">
 <ele>874</ele>
 <time>2020-03-24T14:28:19Z</time>
</trkpt>
<trkpt lat="34.972891" lon="136.435020">
 <ele>869.8</ele>
 <time>2020-03-24T14:28:19Z</time>
</trkpt>
<trkpt lat="34.972771" lon="136.435073">
 <ele>864.3</ele>
 <time>2020-03-24T14:28:19Z</time>
</trkpt>
<trkpt lat="34.972668" lon="136.435148">
 <ele>857.9</ele>
 <time>2020-03-24T14:28:19Z</time>
</trkpt>
<trkpt lat="34.972522" lon="136.435234">
 <ele>851.6</ele>
 <time>2020-03-24T14:28:19Z</time>
</trkpt>
<trkpt lat="34.972419" lon="136.435299">
 <ele>846.5</ele>
 <time>2020-03-24T14:28:19Z</time>
</trkpt>
<trkpt lat="34.972350" lon="136.435352">
 <ele>842.8</ele>
 <time>2020-03-24T14:28:19Z</time>
</trkpt>
<trkpt lat="34.972204" lon="136.435470">
 <ele>834.7</ele>
 <time>2020-03-24T14:28:19Z</time>
</trkpt>
<trkpt lat="34.972093" lon="136.435545">
 <ele>830.2</ele>
 <time>2020-03-24T14:28:20Z</time>
</trkpt>
<trkpt lat="34.971930" lon="136.435653">
 <ele>827</ele>
 <time>2020-03-24T14:28:20Z</time>
</trkpt>
<trkpt lat="34.971818" lon="136.435760">
 <ele>824.3</ele>
 <time>2020-03-24T14:28:20Z</time>
</trkpt>
<trkpt lat="34.971758" lon="136.435781">
 <ele>819.6</ele>
 <time>2020-03-24T14:28:20Z</time>
</trkpt>
<trkpt lat="34.971664" lon="136.435824">
 <ele>812.7</ele>
 <time>2020-03-24T14:28:20Z</time>
</trkpt>
<trkpt lat="34.971526" lon="136.435824">
 <ele>805.8</ele>
 <time>2020-03-24T14:28:20Z</time>
</trkpt>
<trkpt lat="34.971423" lon="136.435824">
 <ele>801.6</ele>
 <time>2020-03-24T14:28:20Z</time>
</trkpt>
<trkpt lat="34.971286" lon="136.435824">
 <ele>793.8</ele>
 <time>2020-03-24T14:28:21Z</time>
</trkpt>
<trkpt lat="34.971200" lon="136.435846">
 <ele>789.7</ele>
 <time>2020-03-24T14:28:21Z</time>
</trkpt>
<trkpt lat="34.971106" lon="136.435856">
 <ele>784.1</ele>
 <time>2020-03-24T14:28:21Z</time>
</trkpt>
<trkpt lat="34.971011" lon="136.435867">
 <ele>780.2</ele>
 <time>2020-03-24T14:28:21Z</time>
</trkpt>
<trkpt lat="34.970917" lon="136.435910">
 <ele>774.6</ele>
 <time>2020-03-24T14:28:21Z</time>
</trkpt>
<trkpt lat="34.970797" lon="136.435974">
 <ele>766.7</ele>
 <time>2020-03-24T14:28:21Z</time>
</trkpt>
<trkpt lat="34.970677" lon="136.436039">
 <ele>758.5</ele>
 <time>2020-03-24T14:28:21Z</time>
</trkpt>
<trkpt lat="34.970582" lon="136.436082">
 <ele>751.2</ele>
 <time>2020-03-24T14:28:21Z</time>
</trkpt>
<trkpt lat="34.970488" lon="136.436114">
 <ele>746</ele>
 <time>2020-03-24T14:28:22Z</time>
</trkpt>
<trkpt lat="34.970402" lon="136.436200">
 <ele>736.5</ele>
 <time>2020-03-24T14:28:22Z</time>
</trkpt>
<trkpt lat="34.970282" lon="136.436275">
 <ele>727.5</ele>
 <time>2020-03-24T14:28:22Z</time>
</trkpt>
<trkpt lat="34.970144" lon="136.436361">
 <ele>720.3</ele>
 <time>2020-03-24T14:28:22Z</time>
</trkpt>
<trkpt lat="34.970076" lon="136.436404">
 <ele>717</ele>
 <time>2020-03-24T14:28:22Z</time>
</trkpt>
<trkpt lat="34.969998" lon="136.436468">
 <ele>713.5</ele>
 <time>2020-03-24T14:28:22Z</time>
</trkpt>
<trkpt lat="34.969921" lon="136.436522">
 <ele>711.3</ele>
 <time>2020-03-24T14:28:22Z</time>
</trkpt>
<trkpt lat="34.969750" lon="136.436575">
 <ele>705.5</ele>
 <time>2020-03-24T14:28:22Z</time>
</trkpt>
<trkpt lat="34.969689" lon="136.436586">
 <ele>703.2</ele>
 <time>2020-03-24T14:28:23Z</time>
</trkpt>
<trkpt lat="34.969638" lon="136.436586">
 <ele>702</ele>
 <time>2020-03-24T14:28:23Z</time>
</trkpt>
<trkpt lat="34.969544" lon="136.436607">
 <ele>698.4</ele>
 <time>2020-03-24T14:28:23Z</time>
</trkpt>
<trkpt lat="34.969423" lon="136.436672">
 <ele>693.2</ele>
 <time>2020-03-24T14:28:23Z</time>
</trkpt>
<trkpt lat="34.969329" lon="136.436693">
 <ele>691.2</ele>
 <time>2020-03-24T14:28:23Z</time>
</trkpt>
<trkpt lat="34.969243" lon="136.436683">
 <ele>687.3</ele>
 <time>2020-03-24T14:28:23Z</time>
</trkpt>
<trkpt lat="34.969166" lon="136.436683">
 <ele>684.4</ele>
 <time>2020-03-24T14:28:23Z</time>
</trkpt>
<trkpt lat="34.969046" lon="136.436683">
 <ele>680.9</ele>
 <time>2020-03-24T14:28:23Z</time>
</trkpt>
<trkpt lat="34.968951" lon="136.436672">
 <ele>678.3</ele>
 <time>2020-03-24T14:28:24Z</time>
</trkpt>
<trkpt lat="34.968865" lon="136.436650">
 <ele>677</ele>
 <time>2020-03-24T14:28:24Z</time>
</trkpt>
<trkpt lat="34.968745" lon="136.436650">
 <ele>674.6</ele>
 <time>2020-03-24T14:28:24Z</time>
</trkpt>
<trkpt lat="34.968574" lon="136.436650">
 <ele>670.9</ele>
 <time>2020-03-24T14:28:24Z</time>
</trkpt>
<trkpt lat="34.968411" lon="136.436661">
 <ele>667.1</ele>
 <time>2020-03-24T14:28:24Z</time>
</trkpt>
<trkpt lat="34.968290" lon="136.436661">
 <ele>663.4</ele>
 <time>2020-03-24T14:28:24Z</time>
</trkpt>
<trkpt lat="34.968196" lon="136.436661">
 <ele>661.7</ele>
 <time>2020-03-24T14:28:24Z</time>
</trkpt>
<trkpt lat="34.968102" lon="136.436661">
 <ele>659.1</ele>
 <time>2020-03-24T14:28:25Z</time>
</trkpt>
<trkpt lat="34.968059" lon="136.436693">
 <ele>658.5</ele>
 <time>2020-03-24T14:28:25Z</time>
</trkpt>
<trkpt lat="34.968007" lon="136.436715">
 <ele>656.5</ele>
 <time>2020-03-24T14:28:25Z</time>
</trkpt>
<trkpt lat="34.967921" lon="136.436726">
 <ele>654.1</ele>
 <time>2020-03-24T14:28:25Z</time>
</trkpt>
<trkpt lat="34.967818" lon="136.436726">
 <ele>652</ele>
 <time>2020-03-24T14:28:25Z</time>
</trkpt>
<trkpt lat="34.967733" lon="136.436726">
 <ele>648.9</ele>
 <time>2020-03-24T14:28:25Z</time>
</trkpt>
<trkpt lat="34.967630" lon="136.436736">
 <ele>644</ele>
 <time>2020-03-24T14:28:25Z</time>
</trkpt>
<trkpt lat="34.967527" lon="136.436747">
 <ele>640.8</ele>
 <time>2020-03-24T14:28:25Z</time>
</trkpt>
<trkpt lat="34.967415" lon="136.436779">
 <ele>634.2</ele>
 <time>2020-03-24T14:28:26Z</time>
</trkpt>
<trkpt lat="34.967329" lon="136.436779">
 <ele>631.1</ele>
 <time>2020-03-24T14:28:26Z</time>
</trkpt>
<trkpt lat="34.967218" lon="136.436811">
 <ele>626.6</ele>
 <time>2020-03-24T14:28:26Z</time>
</trkpt>
<trkpt lat="34.967089" lon="136.436833">
 <ele>620.1</ele>
 <time>2020-03-24T14:28:26Z</time>
</trkpt>
<trkpt lat="34.966986" lon="136.436908">
 <ele>615.9</ele>
 <time>2020-03-24T14:28:26Z</time>
</trkpt>
<trkpt lat="34.966926" lon="136.436994">
 <ele>613.4</ele>
 <time>2020-03-24T14:28:26Z</time>
</trkpt>
<trkpt lat="34.966866" lon="136.437058">
 <ele>612.2</ele>
 <time>2020-03-24T14:28:26Z</time>
</trkpt>
<trkpt lat="34.966797" lon="136.437122">
 <ele>609.8</ele>
 <time>2020-03-24T14:28:26Z</time>
</trkpt>
<trkpt lat="34.966745" lon="136.437187">
 <ele>606.6</ele>
 <time>2020-03-24T14:28:27Z</time>
</trkpt>
<trkpt lat="34.966677" lon="136.437240">
 <ele>603.8</ele>
 <time>2020-03-24T14:28:27Z</time>
</trkpt>
<trkpt lat="34.966557" lon="136.437316">
 <ele>600.4</ele>
 <time>2020-03-24T14:28:27Z</time>
</trkpt>
<trkpt lat="34.966471" lon="136.437369">
 <ele>596.2</ele>
 <time>2020-03-24T14:28:27Z</time>
</trkpt>
<trkpt lat="34.966342" lon="136.437498">
 <ele>591.2</ele>
 <time>2020-03-24T14:28:27Z</time>
</trkpt>
<trkpt lat="34.966342" lon="136.437595">
 <ele>589</ele>
 <time>2020-03-24T14:28:27Z</time>
</trkpt>
<trkpt lat="34.966325" lon="136.437680">
 <ele>585.1</ele>
 <time>2020-03-24T14:28:27Z</time>
</trkpt>
<trkpt lat="34.966325" lon="136.437777">
 <ele>582.8</ele>
 <time>2020-03-24T14:28:27Z</time>
</trkpt>
<trkpt lat="34.966325" lon="136.437863">
 <ele>579.3</ele>
 <time>2020-03-24T14:28:28Z</time>
</trkpt>
<trkpt lat="34.966385" lon="136.437895">
 <ele>576</ele>
 <time>2020-03-24T14:28:28Z</time>
</trkpt>
<trkpt lat="34.966454" lon="136.437906">
 <ele>574.4</ele>
 <time>2020-03-24T14:28:28Z</time>
</trkpt>
<trkpt lat="34.966522" lon="136.437927">
 <ele>570.6</ele>
 <time>2020-03-24T14:28:28Z</time>
</trkpt>
<trkpt lat="34.966600" lon="136.437970">
 <ele>567.9</ele>
 <time>2020-03-24T14:28:28Z</time>
</trkpt>
<trkpt lat="34.966668" lon="136.438045">
 <ele>565.6</ele>
 <time>2020-03-24T14:28:28Z</time>
</trkpt>
<trkpt lat="34.966823" lon="136.438110">
 <ele>564.6</ele>
 <time>2020-03-24T14:28:28Z</time>
</trkpt>
<trkpt lat="34.966891" lon="136.438120">
 <ele>562</ele>
 <time>2020-03-24T14:28:28Z</time>
</trkpt>
<trkpt lat="34.966969" lon="136.438142">
 <ele>555.4</ele>
 <time>2020-03-24T14:28:29Z</time>
</trkpt>
<trkpt lat="34.967089" lon="136.438152">
 <ele>552.4</ele>
 <time>2020-03-24T14:28:29Z</time>
</trkpt>
<trkpt lat="34.967166" lon="136.438281">
 <ele>548.8</ele>
 <time>2020-03-24T14:28:29Z</time>
</trkpt>
<trkpt lat="34.967243" lon="136.438356">
 <ele>546.3</ele>
 <time>2020-03-24T14:28:29Z</time>
</trkpt>
<trkpt lat="34.967303" lon="136.438367">
 <ele>545</ele>
 <time>2020-03-24T14:28:29Z</time>
</trkpt>
<trkpt lat="34.967398" lon="136.438399">
 <ele>543.2</ele>
 <time>2020-03-24T14:28:29Z</time>
</trkpt>
<trkpt lat="34.967492" lon="136.438464">
 <ele>542.2</ele>
 <time>2020-03-24T14:28:29Z</time>
</trkpt>
<trkpt lat="34.967595" lon="136.438517">
 <ele>539.8</ele>
 <time>2020-03-24T14:28:29Z</time>
</trkpt>
<trkpt lat="34.967672" lon="136.438635">
 <ele>534</ele>
 <time>2020-03-24T14:28:29Z</time>
</trkpt>
<trkpt lat="34.967698" lon="136.438753">
 <ele>530.6</ele>
 <time>2020-03-24T14:28:29Z</time>
</trkpt>
<trkpt lat="34.967690" lon="136.438882">
 <ele>524.1</ele>
 <time>2020-03-24T14:28:30Z</time>
</trkpt>
<trkpt lat="34.967638" lon="136.438968">
 <ele>519</ele>
 <time>2020-03-24T14:28:30Z</time>
</trkpt>
<trkpt lat="34.967587" lon="136.439054">
 <ele>514.3</ele>
 <time>2020-03-24T14:28:30Z</time>
</trkpt>
<trkpt lat="34.967552" lon="136.439161">
 <ele>509.6</ele>
 <time>2020-03-24T14:28:30Z</time>
</trkpt>
<trkpt lat="34.967484" lon="136.439268">
 <ele>502.7</ele>
 <time>2020-03-24T14:28:30Z</time>
</trkpt>
<trkpt lat="34.967415" lon="136.439386">
 <ele>496.4</ele>
 <time>2020-03-24T14:28:30Z</time>
</trkpt>
<trkpt lat="34.967363" lon="136.439472">
 <ele>493</ele>
 <time>2020-03-24T14:28:30Z</time>
</trkpt>
<trkpt lat="34.967346" lon="136.439590">
 <ele>489.6</ele>
 <time>2020-03-24T14:28:30Z</time>
</trkpt>
<trkpt lat="34.967338" lon="136.439687">
 <ele>488</ele>
 <time>2020-03-24T14:28:30Z</time>
</trkpt>
<trkpt lat="34.967303" lon="136.439772">
 <ele>484.1</ele>
 <time>2020-03-24T14:28:30Z</time>
</trkpt>
<trkpt lat="34.967226" lon="136.439837">
 <ele>478.2</ele>
 <time>2020-03-24T14:28:31Z</time>
</trkpt>
<trkpt lat="34.967132" lon="136.439891">
 <ele>468.6</ele>
 <time>2020-03-24T14:28:31Z</time>
</trkpt>
<trkpt lat="34.967020" lon="136.439998">
 <ele>459.3</ele>
 <time>2020-03-24T14:28:31Z</time>
</trkpt>
<trkpt lat="34.966951" lon="136.440073">
 <ele>452.9</ele>
 <time>2020-03-24T14:28:31Z</time>
</trkpt>
<trkpt lat="34.966891" lon="136.440202">
 <ele>445</ele>
 <time>2020-03-24T14:28:31Z</time>
</trkpt>
<trkpt lat="34.966857" lon="136.440320">
 <ele>440.6</ele>
 <time>2020-03-24T14:28:31Z</time>
</trkpt>
<trkpt lat="34.966763" lon="136.440384">
 <ele>434.9</ele>
 <time>2020-03-24T14:28:31Z</time>
</trkpt>
<trkpt lat="34.966711" lon="136.440524">
 <ele>428.9</ele>
 <time>2020-03-24T14:28:31Z</time>
</trkpt>
<trkpt lat="34.966668" lon="136.440652">
 <ele>423.9</ele>
 <time>2020-03-24T14:28:31Z</time>
</trkpt>
<trkpt lat="34.966634" lon="136.440760">
 <ele>418.5</ele>
 <time>2020-03-24T14:28:31Z</time>
</trkpt>
<trkpt lat="34.966625" lon="136.440878">
 <ele>415.5</ele>
 <time>2020-03-24T14:28:32Z</time>
</trkpt>
<trkpt lat="34.966634" lon="136.440963">
 <ele>412.6</ele>
 <time>2020-03-24T14:28:32Z</time>
</trkpt>
<trkpt lat="34.966685" lon="136.441028">
 <ele>409.6</ele>
 <time>2020-03-24T14:28:32Z</time>
</trkpt>
<trkpt lat="34.966745" lon="136.441071">
 <ele>408.1</ele>
 <time>2020-03-24T14:28:32Z</time>
</trkpt>
<trkpt lat="34.966788" lon="136.441157">
 <ele>400.6</ele>
 <time>2020-03-24T14:28:32Z</time>
</trkpt>
<trkpt lat="34.966771" lon="136.441221">
 <ele>398.1</ele>
 <time>2020-03-24T14:28:32Z</time>
</trkpt>
<trkpt lat="34.966711" lon="136.441328">
 <ele>391</ele>
 <time>2020-03-24T14:28:32Z</time>
</trkpt>
<trkpt lat="34.966634" lon="136.441500">
 <ele>383.3</ele>
 <time>2020-03-24T14:28:32Z</time>
</trkpt>
<trkpt lat="34.966591" lon="136.441596">
 <ele>380.7</ele>
 <time>2020-03-24T14:28:32Z</time>
</trkpt>
<trkpt lat="34.966522" lon="136.441736">
 <ele>374.5</ele>
 <time>2020-03-24T14:28:33Z</time>
</trkpt>
<trkpt lat="34.966505" lon="136.441843">
 <ele>370.9</ele>
 <time>2020-03-24T14:28:33Z</time>
</trkpt>
<trkpt lat="34.966497" lon="136.441983">
 <ele>368.5</ele>
 <time>2020-03-24T14:28:33Z</time>
</trkpt>
<trkpt lat="34.966471" lon="136.442101">
 <ele>364.5</ele>
 <time>2020-03-24T14:28:33Z</time>
</trkpt>
<trkpt lat="34.966462" lon="136.442197">
 <ele>362.2</ele>
 <time>2020-03-24T14:28:33Z</time>
</trkpt>
<trkpt lat="34.966445" lon="136.442294">
 <ele>360.2</ele>
 <time>2020-03-24T14:28:33Z</time>
</trkpt>
<trkpt lat="34.966445" lon="136.442476">
 <ele>356.1</ele>
 <time>2020-03-24T14:28:33Z</time>
</trkpt>
<trkpt lat="34.966445" lon="136.442605">
 <ele>353.5</ele>
 <time>2020-03-24T14:28:33Z</time>
</trkpt>
<trkpt lat="34.966479" lon="136.442723">
 <ele>354.1</ele>
 <time>2020-03-24T14:28:33Z</time>
</trkpt>
<trkpt lat="34.966497" lon="136.442852">
 <ele>353.2</ele>
 <time>2020-03-24T14:28:33Z</time>
</trkpt>
<trkpt lat="34.966522" lon="136.443013">
 <ele>353.7</ele>
 <time>2020-03-24T14:28:34Z</time>
</trkpt>
<trkpt lat="34.966582" lon="136.443249">
 <ele>350.7</ele>
 <time>2020-03-24T14:28:34Z</time>
</trkpt>
<trkpt lat="34.966608" lon="136.443377">
 <ele>345.8</ele>
 <time>2020-03-24T14:28:34Z</time>
</trkpt>
<trkpt lat="34.966685" lon="136.443570">
 <ele>338.2</ele>
 <time>2020-03-24T14:28:34Z</time>
</trkpt>
<trkpt lat="34.966806" lon="136.443839">
 <ele>330.7</ele>
 <time>2020-03-24T14:28:34Z</time>
</trkpt>
<trkpt lat="34.966900" lon="136.444064">
 <ele>324.9</ele>
 <time>2020-03-24T14:28:34Z</time>
</trkpt>
<trkpt lat="34.967020" lon="136.444203">
 <ele>323.5</ele>
 <time>2020-03-24T14:28:34Z</time>
</trkpt>
<trkpt lat="34.967157" lon="136.444407">
 <ele>317.4</ele>
 <time>2020-03-24T14:28:34Z</time>
</trkpt>
<trkpt lat="34.967235" lon="136.444397">
 <ele>315.4</ele>
 <time>2020-03-24T14:28:34Z</time>
</trkpt>
<trkpt lat="34.967286" lon="136.444343">
 <ele>312.3</ele>
 <time>2020-03-24T14:28:35Z</time>
</trkpt>
<trkpt lat="34.967321" lon="136.444268">
 <ele>311.3</ele>
 <time>2020-03-24T14:28:35Z</time>
</trkpt>
<trkpt lat="34.967424" lon="136.444268">
 <ele>309</ele>
 <time>2020-03-24T14:28:35Z</time>
</trkpt>
<trkpt lat="34.967475" lon="136.444354">
 <ele>308.9</ele>
 <time>2020-03-24T14:28:35Z</time>
</trkpt>
<trkpt lat="34.967544" lon="136.444407">
 <ele>309.4</ele>
 <time>2020-03-24T14:28:35Z</time>
</trkpt>
<trkpt lat="34.967621" lon="136.444611">
 <ele>307.9</ele>
 <time>2020-03-24T14:28:35Z</time>
</trkpt>
<trkpt lat="34.967664" lon="136.444761">
 <ele>307</ele>
 <time>2020-03-24T14:28:35Z</time>
</trkpt>
<trkpt lat="34.967681" lon="136.444976">
 <ele>304.9</ele>
 <time>2020-03-24T14:28:35Z</time>
</trkpt>
<trkpt lat="34.967638" lon="136.445148">
 <ele>304.8</ele>
 <time>2020-03-24T14:28:35Z</time>
</trkpt>
<trkpt lat="34.967604" lon="136.445362">
 <ele>304.8</ele>
 <time>2020-03-24T14:28:35Z</time>
</trkpt>
<trkpt lat="34.967458" lon="136.445727">
 <ele>299.2</ele>
 <time>2020-03-24T14:28:36Z</time>
</trkpt>
<trkpt lat="34.967295" lon="136.446070">
 <ele>289.5</ele>
 <time>2020-03-24T14:28:36Z</time>
</trkpt>
<trkpt lat="34.967226" lon="136.446263">
 <ele>282.1</ele>
 <time>2020-03-24T14:28:36Z</time>
</trkpt>
<trkpt lat="34.967235" lon="136.446446">
 <ele>277.2</ele>
 <time>2020-03-24T14:28:36Z</time>
</trkpt>
<trkpt lat="34.967303" lon="136.446821">
 <ele>275.7</ele>
 <time>2020-03-24T14:28:36Z</time>
</trkpt>
<trkpt lat="34.967329" lon="136.447068">
 <ele>275.6</ele>
 <time>2020-03-24T14:28:36Z</time>
</trkpt>
<trkpt lat="34.967295" lon="136.447208">
 <ele>274.7</ele>
 <time>2020-03-24T14:28:36Z</time>
</trkpt>
<trkpt lat="34.967149" lon="136.447347">
 <ele>274.4</ele>
 <time>2020-03-24T14:28:36Z</time>
</trkpt>
<trkpt lat="34.966986" lon="136.447454">
 <ele>276.1</ele>
 <time>2020-03-24T14:28:36Z</time>
</trkpt>
<trkpt lat="34.966831" lon="136.447529">
 <ele>273</ele>
 <time>2020-03-24T14:28:36Z</time>
</trkpt>
<trkpt lat="34.966737" lon="136.447658">
 <ele>271</ele>
 <time>2020-03-24T14:28:37Z</time>
</trkpt>
<trkpt lat="34.966685" lon="136.447744">
 <ele>272.1</ele>
 <time>2020-03-24T14:28:37Z</time>
</trkpt>
<trkpt lat="34.966617" lon="136.447841">
 <ele>278.3</ele>
 <time>2020-03-24T14:28:37Z</time>
</trkpt>
<trkpt lat="34.966539" lon="136.447905">
 <ele>272.8</ele>
 <time>2020-03-24T14:28:37Z</time>
</trkpt>
<trkpt lat="34.966368" lon="136.448109">
 <ele>272.3</ele>
 <time>2020-03-24T14:28:37Z</time>
</trkpt>
<trkpt lat="34.966299" lon="136.448238">
 <ele>272.4</ele>
 <time>2020-03-24T14:28:37Z</time>
</trkpt>
<trkpt lat="34.966213" lon="136.448409">
 <ele>265.7</ele>
 <time>2020-03-24T14:28:37Z</time>
</trkpt>
<trkpt lat="34.966153" lon="136.448549">
 <ele>262.5</ele>
 <time>2020-03-24T14:28:37Z</time>
</trkpt>
<trkpt lat="34.966085" lon="136.448710">
 <ele>261.5</ele>
 <time>2020-03-24T14:28:37Z</time>
</trkpt>
<trkpt lat="34.966033" lon="136.448935">
 <ele>259.1</ele>
 <time>2020-03-24T14:28:37Z</time>
</trkpt>
<trkpt lat="34.965990" lon="136.449149">
 <ele>256.9</ele>
 <time>2020-03-24T14:28:38Z</time>
</trkpt>
<trkpt lat="34.965930" lon="136.449418">
 <ele>250.8</ele>
 <time>2020-03-24T14:28:38Z</time>
</trkpt>
<trkpt lat="34.965861" lon="136.449557">
 <ele>248.9</ele>
 <time>2020-03-24T14:28:38Z</time>
</trkpt>
<trkpt lat="34.965776" lon="136.449643">
 <ele>249</ele>
 <time>2020-03-24T14:28:38Z</time>
</trkpt>
<trkpt lat="34.965638" lon="136.449750">
 <ele>247.2</ele>
 <time>2020-03-24T14:28:38Z</time>
</trkpt>
<trkpt lat="34.965501" lon="136.449868">
 <ele>242.6</ele>
 <time>2020-03-24T14:28:38Z</time>
</trkpt>
<trkpt lat="34.965407" lon="136.449997">
 <ele>240</ele>
 <time>2020-03-24T14:28:38Z</time>
</trkpt>
<trkpt lat="34.965364" lon="136.450147">
 <ele>239.5</ele>
 <time>2020-03-24T14:28:38Z</time>
</trkpt>
<trkpt lat="34.965312" lon="136.450287">
 <ele>237.9</ele>
 <time>2020-03-24T14:28:38Z</time>
</trkpt>
<trkpt lat="34.965243" lon="136.450330">
 <ele>236.7</ele>
 <time>2020-03-24T14:28:39Z</time>
</trkpt>
<trkpt lat="34.965166" lon="136.450351">
 <ele>235.1</ele>
 <time>2020-03-24T14:28:39Z</time>
</trkpt>
<trkpt lat="34.965080" lon="136.450383">
 <ele>233.9</ele>
 <time>2020-03-24T14:28:39Z</time>
</trkpt>
<trkpt lat="34.964969" lon="136.450448">
 <ele>232.2</ele>
 <time>2020-03-24T14:28:39Z</time>
</trkpt>
<trkpt lat="34.964849" lon="136.450534">
 <ele>231.1</ele>
 <time>2020-03-24T14:28:39Z</time>
</trkpt>
<trkpt lat="34.964737" lon="136.450630">
 <ele>228.7</ele>
 <time>2020-03-24T14:28:39Z</time>
</trkpt>
<trkpt lat="34.964583" lon="136.450759">
 <ele>227.4</ele>
 <time>2020-03-24T14:28:39Z</time>
</trkpt>
<trkpt lat="34.964497" lon="136.450823">
 <ele>226.9</ele>
 <time>2020-03-24T14:28:39Z</time>
</trkpt>
<trkpt lat="34.964342" lon="136.450909">
 <ele>226</ele>
 <time>2020-03-24T14:28:39Z</time>
</trkpt>
<trkpt lat="34.964274" lon="136.450984">
 <ele>225</ele>
 <time>2020-03-24T14:28:39Z</time>
</trkpt>
<trkpt lat="34.964248" lon="136.451038">
 <ele>224.7</ele>
 <time>2020-03-24T14:28:40Z</time>
</trkpt>
<trkpt lat="34.964222" lon="136.451188">
 <ele>223.9</ele>
 <time>2020-03-24T14:28:40Z</time>
</trkpt>
<trkpt lat="34.964171" lon="136.451263">
 <ele>223.1</ele>
 <time>2020-03-24T14:28:40Z</time>
</trkpt>
<trkpt lat="34.964085" lon="136.451338">
 <ele>222.1</ele>
 <time>2020-03-24T14:28:40Z</time>
</trkpt>
<trkpt lat="34.963982" lon="136.451467">
 <ele>221.2</ele>
 <time>2020-03-24T14:28:40Z</time>
</trkpt>
<trkpt lat="34.963879" lon="136.451553">
 <ele>220.2</ele>
 <time>2020-03-24T14:28:40Z</time>
</trkpt>
<trkpt lat="34.963793" lon="136.451660">
 <ele>219</ele>
 <time>2020-03-24T14:28:40Z</time>
</trkpt>
<trkpt lat="34.963647" lon="136.451832">
 <ele>217.4</ele>
 <time>2020-03-24T14:28:40Z</time>
</trkpt>
<trkpt lat="34.963561" lon="136.451939">
 <ele>216.4</ele>
 <time>2020-03-24T14:28:40Z</time>
</trkpt>
<trkpt lat="34.963467" lon="136.452111">
 <ele>214.3</ele>
 <time>2020-03-24T14:28:40Z</time>
</trkpt>
<trkpt lat="34.963372" lon="136.452229">
 <ele>212.9</ele>
 <time>2020-03-24T14:28:41Z</time>
</trkpt>
<trkpt lat="34.963226" lon="136.452325">
 <ele>211</ele>
 <time>2020-03-24T14:28:41Z</time>
</trkpt>
<trkpt lat="34.963098" lon="136.452400">
 <ele>209.7</ele>
 <time>2020-03-24T14:28:41Z</time>
</trkpt>
<trkpt lat="34.963029" lon="136.452475">
 <ele>208.8</ele>
 <time>2020-03-24T14:28:41Z</time>
</trkpt>
<trkpt lat="34.962978" lon="136.452636">
 <ele>207.7</ele>
 <time>2020-03-24T14:28:41Z</time>
</trkpt>
<trkpt lat="34.962935" lon="136.452744">
 <ele>207</ele>
 <time>2020-03-24T14:28:41Z</time>
</trkpt>
<trkpt lat="34.962875" lon="136.452776">
 <ele>206.7</ele>
 <time>2020-03-24T14:28:41Z</time>
</trkpt>
<trkpt lat="34.962789" lon="136.452840">
 <ele>206.2</ele>
 <time>2020-03-24T14:28:41Z</time>
</trkpt>
<trkpt lat="34.962746" lon="136.452958">
 <ele>205.5</ele>
 <time>2020-03-24T14:28:41Z</time>
</trkpt>
<trkpt lat="34.962703" lon="136.453087">
 <ele>204.9</ele>
 <time>2020-03-24T14:28:41Z</time>
</trkpt>
<trkpt lat="34.962583" lon="136.453173">
 <ele>204.2</ele>
 <time>2020-03-24T14:28:42Z</time>
</trkpt>
<trkpt lat="34.962188" lon="136.453312">
 <ele>202.7</ele>
 <time>2020-03-24T14:28:42Z</time>
</trkpt>
<trkpt lat="34.961802" lon="136.453484">
 <ele>201.2</ele>
 <time>2020-03-24T14:28:42Z</time>
</trkpt>
<trkpt lat="34.961312" lon="136.453677">
 <ele>198.1</ele>
 <time>2020-03-24T14:28:42Z</time>
</trkpt>
<trkpt lat="34.960703" lon="136.453945">
 <ele>193.9</ele>
 <time>2020-03-24T14:28:42Z</time>
</trkpt>
<trkpt lat="34.960042" lon="136.454214">
 <ele>190.8</ele>
 <time>2020-03-24T14:28:42Z</time>
</trkpt>
<trkpt lat="34.959828" lon="136.454364">
 <ele>189.1</ele>
 <time>2020-03-24T14:28:42Z</time>
</trkpt>
<trkpt lat="34.959270" lon="136.454814">
 <ele>184</ele>
 <time>2020-03-24T14:28:42Z</time>
</trkpt>
<trkpt lat="34.958634" lon="136.455383">
 <ele>179.5</ele>
 <time>2020-03-24T14:28:42Z</time>
</trkpt>
<trkpt lat="34.958600" lon="136.455329">
 <ele>179.9</ele>
 <time>2020-03-24T14:28:43Z</time>
</trkpt>
</trkseg>
</trk>
</gpx>

